Location: Unspecified
(39.6110°N, 77.4038°W)
Time: 11:18:23
(UTC-04:00)

Tiangong - Visible Passes

Search period start: 17 July 2025 00:00
Search period end: 27 July 2025 00:00
Orbit: 391 x 402 km, 41.5° (Epoch: 17 July)

Date Brightness Start Highest point End Pass type
(mag) Time Alt. Az. Time Alt. Az. Time Alt. Az.
17 Jul -2.1 22:11:39 10° WSW 22:14:51 58° SSE 22:15:46 39° E visible
18 Jul -1.5 21:16:09 10° SW 21:19:12 38° SSE 21:22:16 10° E visible
18 Jul -1.6 22:52:59 10° W 22:55:49 60° WNW 22:55:49 60° WNW visible
19 Jul -2.1 21:57:13 10° WSW 22:00:28 87° NNW 22:02:59 16° ENE visible
19 Jul 0.5 23:34:29 10° WNW 23:35:28 18° WNW 23:35:28 18° WNW visible
20 Jul -2.1 21:01:30 10° WSW 21:04:44 69° SSE 21:07:58 10° ENE visible
20 Jul -1.6 22:38:41 10° W 22:41:55 60° N 22:42:23 52° NE visible
21 Jul -1.7 21:42:51 10° W 21:46:05 65° N 21:49:10 11° ENE visible
21 Jul 0.0 23:20:06 10° WNW 23:21:37 25° WNW 23:21:37 25° WNW visible
22 Jul -1.7 22:24:17 10° WNW 22:27:31 63° N 22:28:17 45° ENE visible
23 Jul -1.6 21:28:26 10° W 21:31:39 59° N 21:34:53 10° E visible
23 Jul -0.3 23:05:36 10° WNW 23:07:19 28° W 23:07:19 28° W visible
24 Jul -2.1 22:09:45 10° WNW 22:13:01 80° NNE 22:13:53 45° E visible
25 Jul -1.8 21:13:54 10° WNW 21:17:08 66° N 21:20:23 10° E visible
25 Jul -0.3 22:51:05 10° W 22:52:52 27° W 22:52:52 27° W visible
26 Jul -2.1 21:55:09 10° WNW 21:58:23 66° SSW 21:59:24 39° SE visible
